This demonstration page uses our WeatherBlox Daily Observations layout. Learn more.

Left ArrowRight Arrow

31.31129, -92.44514

Hourly Observations for December 1, 2019

Temp ( °F °C ) Dew Point ( °F °C ) Humidity (%) Winds ( mph kmh ) Pressure ( in mb ) Visibility ( mi km ) Precip ( " mm )
12:53 am 00:53 Mostly Cloudy 62 16.7 44 6.7 52 52 WNW 10 17 29.86 1011 10 16 0.00 0.00
1:53 am 01:53 Cloudy 61 16.1 46 7.8 58 58 WNW 10 17 29.86 1011 10 16 0.00 0.00
2:53 am 02:53 Mostly Cloudy 59 15 44 6.7 58 58 WNW 8 13 29.88 1012 10 16 0.00 0.00
3:53 am 03:53 Partly Cloudy 56 13.3 44 6.7 65 65 W 8 13 29.88 1012 10 16 0.00 0.00
4:53 am 04:53 Clear 53 11.7 43 6.1 69 69 W 7 11 29.91 1013 10 16 0.00 0.00
5:53 am 05:53 Clear 52 11.1 37 2.8 57 57 WNW 10 17 29.93 1013 10 16 0.00 0.00
6:53 am 06:53 Sunny 51 10.6 35 1.7 54 54 NW 10 17 29.96 1015 10 16 0.00 0.00
7:53 am 07:53 Sunny 51 10.6 40 4.4 66 66 W 7 11 29.99 1016 10 16 0.00 0.00
8:53 am 08:53 Sunny 55 12.8 34 1.1 45 45 WNW 13 20 30.01 1016 10 16 0.00 0.00
9:53 am 09:53 Sunny 57 13.9 32 0 39 39 WNW 15 24 30.02 1017 10 16 0.00 0.00
10:53 am 10:53 Sunny 60 15.6 29 -1.7 31 31 WNW 12 19 30.01 1016 10 16 0.00 0.00
11:53 am 11:53 Sunny 62 16.7 34 1.1 35 35 W 15 24 29.98 1015 10 16 0.00 0.00
12:53 pm 12:53 Sunny 62 16.7 27 -2.8 26 26 NW 20 31 29.97 1015 10 16 0.00 0.00
1:53 pm 13:53 Sunny 62 16.7 30 -1.1 30 30 NW 10 17 29.97 1015 10 16 0.00 0.00
2:53 pm 14:53 Sunny 62 16.7 32 0 32 32 W 20 31 29.98 1015 10 16 0.00 0.00
3:53 pm 15:53 Sunny 60 15.6 28 -2.2 30 30 WNW 20 31 29.99 1016 10 16 0.00 0.00
4:53 pm 16:53 Sunny 57 13.9 29 -1.7 34 34 NW 14 22 30.01 1016 10 16 0.00 0.00
5:53 pm 17:53 Clear 54 12.2 30 -1.1 40 40 WNW 13 20 30.02 1017 10 16 0.00 0.00
6:53 pm 18:53 Clear 50 10 33 0.6 52 52 W 8 13 30.05 1018 10 16 0.00 0.00
7:53 pm 19:53 Clear 50 10 32 0 50 50 WNW 12 19 30.09 1019 10 16 0.00 0.00
8:53 pm 20:53 Clear 49 9.4 32 0 52 52 WNW 10 17 30.11 1020 10 16 0.00 0.00
9:53 pm 21:53 Clear 48 8.9 31 -0.6 52 52 WNW 9 15 30.14 1021 10 16 0.00 0.00
10:53 pm 22:53 Clear 46 7.8 31 -0.6 56 56 NW 9 15 30.16 1021 10 16 0.00 0.00
11:53 pm 23:53 Clear 45 7.2 31 -0.6 58 58 NW 8 13 30.15 1021 10 16 0.00 0.00

Powered by AerisWeather